Find Starlink 31147

NORAD ID: 58681 Int'l Des: 2023-211 Owner: SPXS Country: US Constellation: starlink operational
LEOCIRCULAR

实时位置

正在加载3D地球...

关于 Starlink 31147

正在加载描述...

即将过境

Passes for default location (London). Set your location on the main map for personalized predictions.

高度历史

Loading altitude history...

两行轨道根数

1 58681U 23211Q 26132.57641208 .00002722 00000-0 10839-3 0 9991
2 58681 43.0038 84.6226 0000874 263.3910 96.6842 15.27584919132236
Epoch: May 12, 2026 • Age: 12 hours

当前状态

高度 493.8 km
速度 7.62 km/s
星下点 -38.22°S, 59.78°E
发射日期 Dec 29, 2023
运行时间 2.3 years
类型 internet

技术详情

分类 Payload
质量 730.00 kg
干质量 700.00 kg
总质量 730.00 kg
长度 0.30 m
直径 4.10 m
跨度 29.00 m
形状 Box + pan
制造商 SPXS
平台类型 Starlink V2M
阶段状态 In Orbit
所有者/国家 SPXS/US

Most Searched